Theta_e
335 335 335 334 333 332 330 329 328 327 326 325 324 322 319 316 316 315 308 302 298 297 297 298 299 300 299 300 299 299 299 299 300 300 300 300 299 299 299 298 297 297 301 314 320 319 319 318 318 319 318 318 317 317 319 319 318 317 316 315 315 315 315 316 316 316 316 316 316 317 318 318 318 318 319 320 320 321 321 322 323 323 324 324 324
334 335 334 334 333 331 329 328 327 327 326 325 324 323 320 317 316 315 310 305 300 296 297 298 299 300 299 299 299 298 299 299 299 300 300 300 300 299 299 298 298 298 299 310 318 320 319 318 318 319 318 318 316 316 319 319 317 316 315 315 315 314 314 315 315 315 314 315 315 316 317 317 316 317 317 317 318 319 319 320 320 321 322 322 323
334 334 334 333 332 330 329 328 327 326 326 325 324 323 321 317 315 314 310 307 303 298 297 298 299 299 299 299 298 297 298 299 299 299 300 299 300 299 299 299 298 298 299 306 314 318 319 318 318 318 317 318 316 316 319 318 317 316 315 314 314 313 313 314 314 314 314 314 314 315 316 315 315 315 316 316 316 316 317 317 317 317 318 320 321
333 334 333 332 331 330 329 328 327 326 326 325 324 323 321 318 316 315 312 309 306 301 297 298 298 298 299 298 297 297 297 298 298 299 300 299 300 299 299 299 298 297 299 303 310 315 317 317 318 318 317 318 317 316 318 318 317 315 314 314 313 313 312 313 314 313 313 313 314 314 315 314 314 314 314 314 314 315 315 315 315 315 316 317 318
333 333 333 332 331 330 329 328 327 326 325 325 324 322 320 318 317 317 315 311 310 306 300 298 299 298 298 297 297 297 297 297 298 298 299 299 299 299 299 298 298 297 298 302 308 312 315 316 316 316 317 317 317 316 317 318 317 314 314 313 313 313 312 312 313 313 313 313 313 314 313 313 313 313 313 313 313 313 314 314 314 314 314 315 315
333 333 332 332 330 330 329 328 327 326 325 324 323 322 320 318 317 318 317 314 312 309 303 299 299 299 298 297 297 297 297 297 298 298 298 299 299 299 299 298 298 297 297 300 305 309 313 314 314 315 316 317 317 316 316 318 317 314 313 313 313 313 312 312 312 312 313 313 313 313 312 312 312 312 312 312 312 312 312 313 313 313 313 314 314
332 333 332 332 330 329 329 328 327 326 325 324 323 321 319 317 316 317 318 316 314 309 302 300 300 299 297 296 297 297 297 297 297 297 298 299 300 299 299 299 298 298 297 298 300 305 311 314 313 314 315 316 316 315 316 316 316 314 313 312 312 312 312 312 312 312 312 312 312 312 312 311 311 311 311 311 311 311 312 312 312 312 313 313 313
332 332 332 331 331 330 329 328 327 326 324 323 322 321 318 316 315 316 317 316 314 308 302 301 300 298 297 296 297 297 296 296 296 297 298 299 299 299 299 299 299 298 298 297 297 301 308 310 310 312 314 314 314 314 315 315 315 313 313 312 312 312 311 312 312 312 311 311 312 311 311 310 310 310 310 310 310 310 310 310 310 311 311 312 312
331 331 331 330 330 329 329 327 326 326 324 323 321 320 318 316 316 316 316 315 313 308 302 300 299 298 297 297 297 296 296 295 296 296 297 298 299 299 299 299 299 298 298 298 297 298 302 303 305 310 312 313 313 313 314 314 314 313 313 312 312 311 311 311 311 311 311 310 310 310 310 310 310 309 309 308 308 308 308 308 309 309 309 310 311
330 330 329 329 328 328 327 326 325 325 324 323 321 320 318 317 317 316 315 314 312 309 305 301 299 298 297 297 296 296 295 295 295 296 296 297 298 298 299 299 299 299 298 298 297 297 298 299 301 307 311 312 313 312 313 313 313 313 312 312 312 311 310 310 310 310 310 309 309 309 309 309 308 308 307 307 307 307 308 308 308 309 309 309 309
328 328 328 327 327 326 326 326 325 324 323 322 321 319 318 318 317 316 314 313 311 310 306 302 299 298 298 297 296 295 295 295 295 295 296 296 297 297 298 298 299 299 298 298 297 297 297 297 299 303 308 310 311 312 312 312 312 312 312 312 312 310 310 309 309 309 309 308 308 307 307 307 307 306 306 306 306 307 307 308 308 308 308 309 309
326 326 326 325 325 325 325 324 324 323 322 322 321 320 319 318 317 316 314 311 309 306 304 301 299 298 297 297 296 296 296 296 296 296 296 296 296 296 296 297 298 298 298 297 297 296 296 296 297 299 301 304 309 311 311 311 311 310 310 311 312 310 309 309 308 308 308 307 307 306 306 305 306 306 306 306 306 306 306 307 307 307 308 308 308
323 323 323 323 323 323 323 323 323 322 321 321 321 320 319 319 317 315 313 310 307 304 302 299 298 297 296 296 296 296 296 296 296 296 296 296 295 295 295 296 297 297 297 297 296 296 296 296 296 297 297 298 305 310 311 310 309 308 308 310 311 310 309 309 308 307 307 306 306 305 305 305 305 305 305 305 305 305 305 306 306 306 306 306 307
319 318 318 318 318 319 319 319 320 320 320 319 318 318 318 317 315 313 311 309 307 305 301 299 297 296 296 296 296 296 296 296 296 296 296 296 296 295 295 295 296 296 296 296 296 296 295 295 295 296 296 296 301 308 310 309 307 306 306 308 310 310 310 309 308 307 306 305 305 305 304 304 305 305 305 304 304 304 304 305 305 305 305 306 306
315 315 315 314 314 315 315 315 316 315 316 315 315 315 315 315 314 312 309 306 304 303 301 299 298 297 295 296 298 298 297 296 295 296 296 296 296 296 296 295 295 296 296 295 295 295 295 295 295 295 295 295 297 302 306 307 306 305 304 307 308 307 309 310 309 308 306 305 305 305 305 305 305 305 304 304 304 303 304 305 305 305 305 305 306
309 310 311 311 311 311 311 312 312 312 312 312 311 312 312 312 312 311 308 304 302 301 300 299 298 297 296 296 295 296 299 297 294 295 296 296 296 296 296 295 295 295 295 295 295 295 295 295 295 295 295 295 294 295 298 299 301 301 302 306 307 305 308 310 309 308 307 305 305 304 305 305 304 304 304 303 304 303 304 304 304 305 305 305 305
304 304 306 307 308 308 308 309 309 309 309 309 309 309 309 309 309 308 306 304 303 301 300 298 297 298 297 297 295 296 301 298 293 295 296 295 296 295 295 295 295 295 295 295 295 295 295 294 294 295 294 294 294 293 293 293 295 296 299 304 306 305 306 310 310 308 307 306 305 304 304 304 304 303 303 303 303 303 303 304 304 304 304 304 305
301 301 302 302 303 304 305 306 306 306 306 307 307 307 307 307 307 306 305 304 303 300 299 299 298 297 296 297 296 297 299 297 295 298 297 294 295 295 295 295 295 296 295 295 295 295 294 294 294 294 294 294 293 293 293 293 293 293 295 299 303 304 304 309 310 308 307 306 305 304 304 304 303 303 302 301 303 303 303 304 304 303 304 304 304
301 301 300 300 300 301 301 302 303 303 304 304 305 305 305 305 305 305 304 304 303 299 299 299 298 297 296 296 296 296 296 295 297 299 298 297 295 293 295 295 295 295 295 295 295 294 294 294 294 294 294 294 293 293 293 292 292 292 292 294 298 300 302 306 309 309 307 306 305 305 304 304 303 303 301 300 302 303 303 303 303 303 303 303 304
301 301 300 300 300 300 300 300 300 300 300 301 302 303 303 303 303 302 302 302 302 300 299 299 297 297 297 296 296 296 295 295 295 295 296 298 297 295 294 294 295 295 295 295 294 294 294 293 293 293 293 293 293 293 292 292 292 291 291 291 293 296 297 301 307 308 307 306 306 305 305 304 303 303 301 300 301 302 303 303 303 302 303 303 303
299 299 299 299 299 299 299 299 299 299 299 299 299 300 300 301 301 301 301 300 300 300 299 298 298 297 298 297 296 296 295 295 295 294 295 295 297 299 295 293 294 294 294 294 293 293 293 293 293 293 293 293 292 292 292 291 291 290 291 291 291 292 293 298 305 308 307 306 306 305 304 304 303 303 302 300 300 302 302 303 302 302 302 302 303
298 298 298 298 298 299 299 299 299 299 298 298 298 298 298 298 299 299 300 300 300 299 298 298 298 297 297 297 296 296 295 295 294 294 295 294 295 297 293 291 294 294 295 295 294 294 293 293 293 292 293 292 292 292 291 291 291 290 290 290 290 290 291 297 305 307 306 306 305 304 304 304 304 303 302 302 301 302 302 302 302 302 302 302 302
295 296 296 296 297 297 298 298 299 299 298 298 298 297 297 297 297 297 298 298 299 299 298 298 298 297 297 296 296 296 295 295 295 295 295 294 295 295 293 292 293 293 295 296 295 294 293 293 293 293 293 292 292 292 291 291 291 290 290 290 290 290 291 297 303 305 305 305 304 303 303 302 303 303 303 302 302 302 302 302 302 302 302 302 302
292 292 293 294 294 295 296 297 298 298 298 298 298 297 297 297 297 296 297 297 297 298 298 298 298 297 297 296 296 296 295 295 295 295 295 295 295 295 294 294 293 292 294 295 294 294 294 293 293 293 293 292 292 292 291 291 290 290 290 290 289 289 290 295 301 304 304 304 303 302 302 301 300 301 302 302 302 302 302 302 302 302 302 302 301
287 288 289 290 291 292 293 294 295 296 296 297 297 296 296 296 296 296 296 296 296 296 297 297 297 297 297 297 296 296 295 295 295 295 295 295 295 294 294 294 293 292 294 294 293 294 294 294 294 294 293 293 292 292 291 291 290 290 290 289 289 289 289 292 297 301 302 303 303 302 301 300 298 296 298 299 300 302 302 302 302 301 301 302 301
285 285 286 286 287 288 289 290 291 292 293 294 294 294 295 295 295 295 295 295 295 295 295 296 296 296 296 296 296 296 295 295 295 294 294 294 294 294 295 295 293 292 293 293 293 293 293 295 296 295 294 293 293 292 292 291 290 290 289 289 289 289 289 290 292 295 298 299 300 300 299 298 295 292 292 294 296 300 302 301 302 301 301 301 301
285 285 285 285 285 285 286 286 286 287 288 289 290 291 293 293 294 294 294 294 294 294 295 295 295 295 295 295 296 295 295 295 295 294 294 294 294 294 294 295 294 293 294 294 292 291 293 295 296 295 295 294 293 293 292 292 291 290 289 289 289 289 289 289 290 291 292 293 294 294 294 293 291 290 289 290 291 296 300 301 301 301 301 301 301
285 285 285 285 285 285 285 285 285 285 285 286 286 287 288 289 291 292 293 293 293 294 294 294 294 294 294 295 295 295 295 295 295 294 294 293 293 293 294 294 295 295 295 295 293 292 293 294 294 295 296 295 295 294 293 292 291 290 289 289 289 289 289 289 290 290 290 290 290 290 290 289 288 288 288 288 289 291 296 300 301 300 300 300 300
285 285 286 286 285 285 285 285 285 285 285 285 285 285 286 286 287 288 289 291 292 293 293 293 293 293 293 294 294 294 294 294 294 294 294 294 293 293 293 293 294 294 294 295 294 293 294 294 294 295 296 296 296 295 293 293 293 291 290 289 289 289 289 289 289 290 290 289 289 289 288 288 287 287 287 287 288 288 292 298 300 299 299 299 299
286 285 285 285 285 285 285 285 285 285 285 285 285 285 285 285 285 285 286 287 289 290 291 292 292 293 292 293 293 293 293 293 294 294 294 294 293 293 292 292 293 293 293 294 294 294 293 294 295 295 296 297 297 296 295 294 294 292 291 290 289 289 289 289 289 290 289 289 288 288 288 288 287 287 287 287 287 287 290 296 298 297 298 298 298
286 286 286 285 285 285 285 285 285 285 285 285 285 285 285 285 285 285 285 285 286 286 287 289 290 291 292 292 292 292 292 293 293 293 293 293 293 293 292 292 292 292 292 292 293 293 293 294 295 295 296 296 296 296 295 295 295 293 292 291 290 289 289 289 289 289 289 288 288 287 287 287 287 287 287 287 287 286 289 294 297 296 297 297 297
285 285 285 285 285 285 285 285 285 285 285 285 285 285 285 285 285 285 285 285 285 285 285 286 286 288 289 290 291 291 292 292 292 292 292 292 292 292 292 292 292 291 291 291 291 292 293 293 294 294 295 295 296 296 295 295 295 294 292 291 291 290 289 289 289 289 289 288 287 287 287 287 287 287 287 286 287 286 287 291 295 295 295 295 295
284 284 284 284 284 284 284 284 285 285 285 285 284 284 284 284 284 285 285 285 285 285 285 285 285 285 286 287 288 289 290 291 291 291 291 291 291 292 292 291 291 291 291 290 290 291 292 292 293 293 294 294 295 295 294 294 294 294 293 292 291 290 289 290 289 289 289 289 288 287 286 286 286 286 287 286 286 286 286 288 292 293 293 293 293
283 283 283 283 283 283 283 283 283 284 284 284 284 284 284 284 284 284 284 284 284 285 285 285 285 285 285 285 285 286 287 289 290 290 291 291 291 291 291 291 291 291 290 290 290 290 291 292 292 293 293 293 294 294 293 293 294 294 294 293 291 291 290 290 290 290 290 289 288 287 286 286 286 286 287 286 286 286 286 287 289 291 292 292 292
282 282 282 282 281 281 281 282 282 282 282 283 283 283 283 283 284 284 284 283 283 284 284 284 284 285 285 285 285 285 285 286 287 288 289 290 290 290 290 290 290 290 290 290 290 289 290 291 291 292 292 293 293 293 293 293 293 293 293 293 293 292 291 290 290 290 290 289 289 287 286 285 285 285 286 286 286 286 286 286 287 290 291 291 291
282 281 281 281 281 281 281 281 281 281 281 281 281 282 282 282 282 282 283 283 283 283 283 283 284 284 284 284 284 285 285 284 285 286 287 288 289 290 290 290 290 290 290 290 290 289 289 290 290 291 291 292 292 293 292 292 292 292 292 292 292 291 291 290 290 290 290 289 289 287 286 285 285 285 285 286 286 285 286 286 287 289 291 291 291
281 281 280 280 280 280 280 280 280 280 280 280 280 280 280 280 280 281 281 281 281 282 282 282 283 283 283 284 284 284 285 285 285 284 285 286 287 288 289 289 289 289 289 289 289 289 289 288 289 290 290 291 292 292 291 290 290 290 290 290 290 290 289 289 289 289 289 289 289 288 286 285 285 285 285 286 285 285 286 285 286 288 290 290 291
281 280 280 280 280 279 279 279 279 279 279 279 279 279 279 279 279 279 280 280 280 280 281 281 281 282 282 283 283 284 284 284 285 285 285 285 285 286 287 288 288 289 289 289 289 289 288 288 288 289 289 290 290 291 291 290 289 289 289 288 288 288 288 287 288 288 289 289 289 288 287 286 285 285 286 287 286 284 285 285 285 287 288 289 290
280 280 279 279 279 279 278 279 279 279 279 279 279 279 279 279 279 279 279 279 279 280 280 281 281 281 281 282 282 283 283 284 284 284 285 285 285 285 285 286 287 288 288 289 288 288 288 288 288 288 288 288 289 290 290 290 289 289 288 287 286 286 286 287 287 288 288 288 288 288 287 286 286 286 287 289 287 284 284 285 285 285 286 288 289
279 279 278 278 278 278 278 278 278 278 278 278 278 278 278 278 278 278 279 279 279 280 280 281 281 281 282 282 282 282 283 283 284 284 284 285 285 285 285 285 286 287 288 288 288 288 288 288 288 288 288 288 288 288 289 288 287 287 287 286 286 286 286 286 287 287 287 287 287 287 286 286 286 286 287 288 286 284 284 285 285 285 286 287 288
278 278 277 277 277 277 277 277 277 277 277 277 277 277 278 278 278 279 279 279 280 280 280 281 281 281 281 282 282 282 282 283 283 283 284 284 285 285 285 285 286 287 287 288 288 288 288 288 288 288 288 287 287 287 287 286 286 287 287 286 286 286 286 285 286 286 286 286 285 285 285 285 286 285 286 286 286 285 286 286 285 286 286 286 287
277 277 277 276 276 276 276 277 276 276 277 276 276 277 278 278 279 279 279 279 279 279 280 280 280 280 281 281 282 282 282 283 283 283 283 284 284 284 285 285 286 286 287 287 287 288 288 288 288 288 288 287 287 287 286 287 287 287 287 286 286 286 285 284 285 285 285 285 284 284 284 284 285 285 285 286 285 286 286 286 286 286 286 286 286
277 277 276 276 276 275 275 275 275 275 275 275 276 277 277 278 278 278 278 278 278 279 279 279 279 280 280 280 281 281 282 282 282 283 283 283 283 284 284 285 285 286 287 287 287 287 287 288 288 288 288 288 288 288 287 287 287 286 286 286 286 285 285 284 285 285 285 284 284 283 283 284 284 285 285 285 285 285 286 286 286 286 286 286 286
275 275 275 274 274 274 274 274 274 274 274 274 275 275 276 276 277 277 277 277 278 278 278 278 278 279 279 279 279 280 280 281 282 282 282 283 283 283 283 284 284 285 286 286 287 287 287 287 288 288 288 288 289 288 288 287 286 286 286 286 285 285 285 285 286 286 286 285 284 283 283 284 284 284 285 285 285 285 285 285 286 286 286 286 286
273 273 273 273 272 272 272 272 272 272 272 272 273 273 274 275 275 276 276 276 276 276 276 276 277 277 277 278 278 279 279 280 280 281 282 282 282 282 283 283 284 284 285 286 287 287 287 288 288 288 288 288 289 289 288 288 287 286 286 286 285 285 285 285 286 286 286 285 284 283 283 284 283 284 284 285 285 285 285 285 285 286 285 285 286
272 271 271 270 270 270 269 269 269 269 269 270 271 271 272 272 273 274 274 274 274 275 275 275 275 276 276 276 276 277 278 278 279 280 280 281 281 282 282 283 283 283 284 285 286 286 287 288 288 288 288 288 289 289 289 289 288 287 286 286 286 285 285 286 286 286 286 286 286 285 284 284 284 283 283 284 284 284 285 285 285 285 286 285 285
270 269 269 268 268 268 267 267 267 267 267 268 269 269 270 271 271 272 272 272 272 272 273 273 274 274 274 275 275 276 276 277 277 278 279 279 280 281 282 282 283 283 283 284 284 285 286 287 288 288 288 288 289 289 289 289 288 288 287 287 287 286 286 286 286 286 285 286 286 285 285 285 284 283 283 284 284 284 284 285 284 285 286 287 286
268 267 267 267 266 266 266 266 266 265 265 266 267 268 269 269 270 270 270 270 270 270 270 271 271 272 273 273 274 275 275 275 276 276 277 278 279 279 280 281 282 283 283 283 284 284 285 285 286 287 287 288 288 289 289 289 289 288 287 287 287 286 286 286 285 286 285 284 284 284 285 285 284 283 283 283 283 283 283 283 284 284 286 287 287
266 266 265 265 265 265 265 265 264 264 264 265 266 267 268 268 269 269 269 269 269 269 269 270 270 270 271 272 272 273 273 273 274 274 275 276 277 278 278 279 281 282 283 283 283 284 284 284 285 286 286 287 287 288 289 289 289 288 287 286 286 286 286 286 286 286 285 284 284 284 284 285 284 284 284 283 282 283 283 283 283 283 284 287 288
265 264 264 264 264 264 264 264 264 264 264 264 265 266 266 267 268 268 268 269 269 269 269 269 270 270 270 271 271 272 272 273 273 274 275 275 276 276 277 278 279 280 282 283 283 283 284 284 284 285 286 286 287 287 288 289 289 289 288 286 286 286 286 286 286 286 286 285 284 283 283 284 284 283 283 282 282 282 282 282 282 282 283 286 288
264 263 263 263 263 263 263 263 263 263 263 263 264 265 266 267 268 268 268 269 269 269 269 269 269 269 269 270 270 271 271 272 273 273 274 275 275 276 276 276 277 278 280 281 283 283 283 284 284 285 285 286 286 287 288 288 289 289 289 288 287 286 286 286 286 286 286 286 285 284 283 284 284 283 282 282 281 281 281 281 281 281 282 284 287
Wind_Speed
29 29 28 27 26 25 25 24 23 22 22 22 22 22 23 24 24 24 21 19 18 17 16 15 14 13 11 10 9 8 8 7 7 7 7 6 6 6 6 6 7 8 8 7 7 7 7 7 7 7 6 6 7 7 8 9 7 6 5 4 4 3 3 4 4 4 3 3 4 5 5 5 4 3 3 3 3 3 4 4 4 4 5 5 6
30 30 29 28 27 26 26 25 24 23 23 23 23 22 23 25 25 25 22 20 18 17 17 16 15 13 12 11 10 9 9 9 9 8 8 8 7 7 6 7 7 8 9 9 9 8 8 8 8 8 7 7 7 7 9 10 8 6 5 5 4 4 4 4 4 4 4 4 4 5 4 4 4 4 4 3 3 3 3 3 3 3 4 5 5
30 30 29 29 28 27 27 26 25 25 24 23 23 23 24 25 26 25 23 21 19 17 17 17 16 15 14 13 12 11 11 11 10 10 10 9 9 8 7 7 8 9 10 11 11 11 11 10 9 9 9 8 7 7 9 10 8 6 5 6 5 4 5 5 5 4 4 4 5 6 5 4 4 4 4 3 3 4 3 3 2 2 2 3 4
30 30 29 29 28 27 27 27 26 26 24 24 23 23 23 25 26 26 24 22 19 18 18 18 17 17 16 15 14 13 13 12 12 11 11 10 9 9 9 9 9 10 11 12 13 14 14 14 13 11 10 10 8 8 10 11 7 6 6 6 5 5 5 6 5 5 5 5 6 6 5 4 4 4 4 3 3 4 4 3 3 3 3 3 4
30 30 29 29 29 28 28 28 27 26 25 24 23 23 24 25 26 26 25 23 22 21 21 21 20 19 18 17 16 16 15 14 14 13 12 12 11 11 10 10 10 11 12 13 14 14 15 16 15 14 11 11 12 10 11 12 8 6 7 6 6 5 5 6 6 5 6 6 6 6 6 5 5 4 4 4 3 3 3 3 3 3 4 4 5
30 30 29 30 30 29 28 28 27 26 25 24 23 23 24 26 26 26 25 24 23 23 23 23 22 21 20 19 18 17 17 16 15 14 14 13 13 13 12 12 12 12 13 14 15 15 16 16 16 16 14 14 16 12 12 15 11 8 8 7 7 6 5 6 6 6 6 7 7 7 6 6 5 4 4 4 4 4 3 3 4 4 4 5 5
29 30 30 30 30 30 29 28 27 26 25 24 23 23 24 25 26 25 25 24 23 22 24 24 23 22 22 21 20 19 19 18 17 16 16 16 16 15 14 13 13 13 13 14 16 16 17 16 16 17 17 16 18 14 12 15 14 10 10 9 9 8 7 7 7 7 7 7 8 7 7 7 6 5 5 4 4 4 4 4 4 4 4 5 5
28 29 30 30 30 30 30 28 27 27 25 24 23 23 24 24 25 25 25 24 23 22 24 25 24 23 22 22 21 21 21 20 19 18 17 18 18 18 16 15 15 14 14 15 16 17 17 17 16 18 19 17 18 15 12 13 13 12 12 11 10 9 8 8 8 8 8 8 8 7 7 7 7 6 5 5 5 5 4 4 4 5 5 5 5
28 29 30 30 30 30 30 29 28 27 26 24 23 24 24 25 25 25 25 24 24 24 24 25 24 24 23 22 22 22 22 21 19 19 20 21 21 20 19 18 17 15 15 16 16 17 18 18 17 18 19 18 18 17 14 13 12 11 12 11 10 9 9 9 9 9 9 9 8 8 8 8 7 7 6 6 5 5 5 5 5 5 5 5 6
25 27 28 28 28 29 29 28 27 27 25 24 24 24 24 25 25 25 25 25 25 25 25 26 25 24 23 23 22 22 22 21 20 20 21 22 22 22 21 20 18 17 16 17 17 18 18 19 19 19 20 19 19 19 18 16 14 12 12 12 12 11 11 11 10 10 10 9 9 9 9 9 8 8 7 6 6 5 5 5 5 5 5 5 5
20 23 24 24 25 26 27 27 26 26 25 25 24 24 25 25 26 26 26 26 26 26 25 25 24 23 23 22 22 22 22 20 21 22 22 23 23 22 22 21 20 19 19 18 18 18 19 19 20 21 21 21 21 21 21 19 17 15 13 12 13 12 12 12 12 11 10 10 11 10 10 10 9 8 7 7 6 6 6 6 6 6 5 5 5
13 15 17 18 20 22 24 25 25 25 25 26 26 26 26 27 28 27 27 26 26 24 23 23 23 21 21 21 20 20 21 22 22 22 23 23 23 22 22 22 22 22 22 20 19 19 20 20 21 22 23 23 23 23 23 22 20 18 16 14 14 14 14 14 14 13 11 11 12 11 11 11 10 9 8 8 7 7 7 7 7 7 7 6 6
4 6 8 10 13 16 19 21 22 23 25 27 27 28 28 28 28 27 27 26 25 24 23 22 20 16 14 16 19 20 20 21 22 24 25 23 22 22 23 23 24 25 23 22 21 21 21 21 22 22 23 24 25 25 24 24 22 21 19 18 16 15 15 15 15 14 13 13 12 12 12 11 10 10 10 9 8 8 8 8 8 7 7 7 7
6 6 7 7 7 9 12 16 19 21 24 25 27 27 27 28 28 26 25 26 26 25 24 21 17 15 11 8 12 17 19 21 24 26 25 23 23 24 25 26 26 26 25 24 23 23 22 22 22 23 24 25 26 27 27 27 25 23 22 22 21 18 17 17 16 15 14 14 14 13 12 12 11 11 11 10 9 9 9 8 8 8 8 7 7
5 6 7 9 9 9 9 11 14 17 21 23 24 25 26 27 27 26 25 24 24 23 25 24 20 15 8 4 5 6 11 18 26 28 26 25 26 26 26 27 28 27 26 26 26 25 24 23 24 24 25 25 26 28 29 29 28 27 25 26 25 22 20 19 19 17 16 16 15 14 13 13 12 12 11 10 9 9 9 9 8 8 8 8 8
6 6 6 7 9 9 10 10 10 12 15 18 20 21 23 25 26 27 25 22 22 23 25 26 25 18 7 2 1 0 5 9 16 25 28 28 28 28 28 28 29 28 27 28 27 27 26 25 25 25 26 26 26 28 29 29 29 28 27 28 27 25 23 21 21 20 18 18 17 15 15 14 13 13 12 11 10 9 9 9 9 9 9 9 9
9 8 7 7 7 8 9 10 10 10 10 12 16 19 20 22 23 25 25 23 22 23 24 25 29 28 17 5 1 1 4 3 4 12 21 28 31 29 30 30 29 29 28 29 28 28 27 28 27 27 27 28 27 28 28 28 28 28 28 29 29 28 26 24 23 23 21 20 18 17 16 15 14 14 13 11 11 10 10 10 9 9 9 9 9
14 13 12 10 9 8 9 10 10 11 11 10 10 13 17 19 21 23 25 25 23 20 21 24 28 33 30 20 11 6 3 1 1 4 9 20 28 30 30 31 30 30 29 30 30 30 30 29 29 29 28 29 29 29 28 29 28 28 29 30 31 31 30 27 26 24 23 21 20 18 17 16 15 15 14 13 12 12 11 11 11 10 10 10 10
12 12 13 13 12 11 10 10 10 11 11 11 10 10 12 16 19 21 23 24 24 21 21 23 24 29 33 33 27 20 12 6 3 3 5 8 18 27 30 30 30 30 31 33 32 32 32 31 31 31 31 30 30 30 30 29 29 29 29 30 32 32 32 31 29 27 24 23 21 19 18 17 15 16 15 14 13 13 13 13 12 12 11 11 11
10 10 10 11 11 12 12 11 11 11 12 12 11 11 11 12 15 18 20 22 24 24 24 24 23 24 29 34 34 32 27 19 12 7 4 4 7 15 24 29 30 31 32 34 35 34 34 34 33 33 32 32 32 32 31 30 29 29 29 30 31 33 34 33 31 30 27 25 22 20 20 18 16 16 16 15 14 14 14 14 14 13 12 12 12
12 12 11 11 11 10 10 11 12 12 13 13 13 13 12 12 13 15 16 18 21 23 25 25 25 25 26 28 30 31 31 29 24 16 9 7 5 4 12 19 24 31 36 36 36 37 37 36 35 34 33 33 33 33 33 32 31 30 30 30 30 31 33 33 32 33 31 28 25 22 21 19 17 17 17 15 15 15 15 15 15 14 14 13 13
14 13 13 12 12 11 10 10 10 11 12 13 14 14 14 14 14 15 16 16 18 19 22 24 26 27 27 25 24 23 22 21 22 21 15 11 9 6 9 12 13 23 34 38 40 40 39 38 36 36 36 35 35 35 35 34 32 32 30 30 30 31 32 32 33 34 33 31 29 26 24 21 18 18 18 16 16 16 16 16 16 16 15 14 14
18 17 16 15 14 12 11 10 9 10 11 12 13 13 14 15 15 15 16 17 17 18 20 22 24 26 27 28 27 24 21 17 18 21 18 12 9 7 10 15 15 20 27 32 37 40 41 40 39 39 39 38 37 36 36 36 34 33 31 30 31 31 33 33 34 35 35 34 32 30 28 24 21 20 19 18 17 17 17 17 17 17 16 16 15
24 24 23 21 19 16 13 11 11 11 12 13 13 14 15 15 16 16 16 17 17 18 19 20 22 24 26 27 29 29 28 26 24 24 23 20 16 10 11 14 14 18 24 27 29 34 38 41 42 42 42 41 39 38 38 38 37 35 33 32 32 32 34 35 36 36 36 36 34 33 31 28 25 23 22 20 19 18 19 18 18 18 18 17 16
28 27 27 25 24 22 19 17 15 13 13 14 14 15 16 16 16 16 17 17 18 18 20 20 21 22 24 26 28 29 30 30 28 27 26 26 21 13 13 15 12 14 20 23 24 26 31 37 40 42 43 43 41 40 40 40 39 37 35 33 33 33 35 36 37 38 38 38 37 35 33 31 29 27 26 25 21 20 20 19 19 19 18 17 17
27 26 25 25 24 24 23 21 19 18 16 15 15 15 16 16 16 16 17 18 18 19 19 20 21 21 22 24 26 28 29 29 29 29 27 26 23 17 14 15 15 14 15 17 20 20 23 29 34 39 43 44 43 42 42 42 41 39 37 36 35 35 35 36 37 39 40 40 39 37 35 33 31 30 30 29 26 22 21 21 20 19 18 17 17
23 23 23 23 23 23 22 22 22 21 20 20 19 17 17 16 16 16 17 17 18 19 19 20 21 22 22 23 25 26 27 28 28 29 29 28 27 25 18 11 11 11 10 13 17 20 23 26 29 35 39 42 44 44 43 43 43 41 39 38 37 37 36 36 37 38 40 40 39 37 35 33 32 32 32 32 30 26 22 22 21 20 19 18 18
21 22 22 22 22 22 22 22 21 21 21 21 21 21 20 19 18 18 17 17 17 18 19 20 21 22 23 24 25 26 26 26 27 28 29 29 29 29 25 17 11 8 7 9 10 15 24 27 27 31 35 39 42 44 44 44 44 43 41 40 40 39 38 37 37 37 38 38 37 36 33 32 32 32 32 32 32 30 25 23 23 22 21 20 20
23 23 23 23 23 23 23 23 22 22 22 22 22 22 21 21 21 20 20 19 18 18 19 20 21 22 23 23 24 26 26 26 26 26 26 28 28 29 29 26 19 11 8 9 8 9 17 25 28 30 32 35 39 42 44 45 44 44 44 43 42 42 41 39 38 37 37 37 37 35 33 32 32 32 32 32 33 32 29 24 23 23 22 22 22
25 25 25 24 24 24 24 24 24 24 24 24 24 24 23 22 22 21 21 21 21 20 20 20 21 21 23 23 24 25 26 26 27 26 26 26 27 28 29 30 28 20 12 10 11 14 17 23 29 30 31 34 36 39 43 44 44 45 46 45 44 44 43 41 40 38 37 37 37 36 34 32 32 32 32 33 33 33 31 25 24 25 26 27 25
25 25 26 26 26 26 26 26 26 25 25 25 25 26 26 26 25 24 23 22 22 23 22 22 22 22 23 24 25 25 25 26 26 27 27 26 27 27 28 29 30 30 24 14 11 15 18 21 27 30 31 34 36 38 42 43 43 45 46 46 46 46 44 43 41 39 38 38 38 37 35 33 32 32 32 33 33 33 32 27 25 26 28 30 26
24 24 24 25 26 27 27 28 28 28 28 27 27 26 26 26 26 27 27 26 25 25 24 24 24 24 25 26 26 26 26 27 27 27 27 27 27 27 27 29 30 31 30 21 13 16 20 22 26 29 30 33 36 38 41 42 42 44 46 47 47 46 45 44 43 41 40 39 39 39 37 35 33 33 33 33 33 33 33 30 27 25 26 26 24
23 24 24 24 25 26 26 27 27 28 29 29 30 29 29 28 27 27 28 28 29 29 27 27 26 25 26 27 28 27 26 27 28 28 28 28 27 27 27 27 29 30 29 25 18 17 22 26 27 28 29 31 36 39 40 40 42 43 45 47 47 46 46 45 45 44 42 41 40 40 39 37 35 34 34 34 34 34 34 32 29 27 25 24 24
23 24 25 25 26 26 26 27 27 27 28 28 29 31 31 32 32 31 30 29 30 30 30 31 30 28 27 28 29 29 28 28 29 28 28 28 28 29 29 27 29 29 27 28 24 19 21 25 27 29 30 31 35 38 39 41 42 42 44 46 47 47 48 47 46 45 44 43 42 41 40 39 37 36 35 35 34 34 35 33 31 29 27 26 26
24 25 26 27 27 28 28 28 28 28 29 29 29 30 30 32 33 34 35 34 33 32 32 32 32 31 31 31 30 30 29 29 30 28 28 29 28 30 31 29 29 30 28 27 28 24 23 25 26 29 30 32 35 38 39 40 42 42 45 46 47 48 49 48 48 47 46 45 43 43 42 41 39 38 37 36 35 35 35 35 33 30 28 28 28
25 26 27 28 28 29 29 30 30 30 30 31 31 31 31 32 33 34 35 36 36 36 36 35 34 33 32 33 34 32 29 30 31 31 29 29 29 29 31 31 30 30 29 28 29 29 26 25 26 27 29 32 36 37 37 38 40 42 44 45 45 47 48 48 48 47 46 45 44 44 43 42 41 39 38 37 36 36 35 35 35 31 29 29 28
27 28 29 30 30 30 30 30 31 31 31 32 32 33 33 33 34 35 35 36 37 38 39 39 38 36 34 35 36 34 31 31 32 32 30 29 29 28 30 31 30 30 30 29 30 31 29 28 28 27 27 30 34 35 35 35 37 39 41 42 43 44 44 44 45 46 46 45 45 45 44 44 43 41 40 39 37 37 36 36 36 34 31 29 28
30 30 31 32 31 32 32 32 31 32 32 32 32 32 33 33 33 34 34 35 36 37 38 39 40 40 38 38 38 36 33 33 33 33 32 31 31 30 30 31 30 30 30 30 30 30 30 31 30 27 26 29 32 34 34 34 35 36 37 38 40 40 40 40 42 44 46 46 47 46 46 45 44 43 40 37 37 38 37 37 38 37 34 31 29
32 33 33 33 33 33 33 33 33 32 32 33 33 32 32 31 31 32 33 34 35 36 37 38 39 40 40 41 41 40 37 35 35 35 34 32 33 33 33 33 31 29 29 31 30 28 29 30 29 28 27 28 30 33 34 33 34 37 37 34 33 35 37 39 42 44 45 47 48 47 47 46 44 43 39 34 36 39 38 39 39 38 37 34 31
32 33 34 35 36 35 34 34 33 33 34 34 34 32 31 30 30 31 33 34 35 36 36 38 38 39 40 41 42 42 41 39 37 37 35 34 33 33 34 34 32 30 30 30 29 27 28 28 28 28 26 25 27 30 30 27 28 33 35 30 28 31 37 40 43 44 44 45 46 45 46 46 44 43 41 37 39 41 40 39 40 40 39 37 35
35 35 36 36 35 36 36 35 35 35 34 35 35 31 30 30 31 31 32 32 33 34 35 37 38 39 40 40 41 42 42 42 41 40 39 37 34 34 35 34 33 32 31 30 28 27 26 25 26 26 23 23 25 26 26 27 31 32 30 29 30 32 33 35 39 42 42 42 42 42 44 45 44 44 43 43 43 42 41 40 40 41 40 39 38
39 39 39 38 36 36 36 37 37 36 36 37 35 30 28 29 30 31 32 33 33 34 35 37 38 39 40 40 41 42 42 43 43 44 44 43 40 38 39 37 34 33 33 31 30 28 26 23 24 25 20 20 25 27 27 31 34 30 27 30 32 29 25 25 30 38 42 40 36 38 41 43 43 44 45 48 48 44 43 43 43 43 42 42 41
40 39 39 39 39 37 36 37 38 39 39 39 34 30 29 30 30 31 33 35 35 36 36 37 39 40 40 40 40 41 41 42 42 43 43 44 44 43 42 41 39 37 36 34 32 31 28 25 26 26 21 22 29 29 28 31 31 30 31 32 30 27 24 20 19 26 36 41 36 33 38 40 42 45 47 49 50 47 47 48 46 46 45 43 43
38 39 39 39 39 38 36 37 38 39 40 39 33 31 32 32 31 31 33 35 36 36 36 37 38 40 41 41 41 42 42 42 42 42 42 43 44 45 44 43 42 41 41 40 38 35 31 28 28 29 27 27 31 29 28 29 29 30 32 32 31 31 28 24 22 22 29 38 37 32 35 39 41 45 49 50 51 51 50 50 49 48 48 46 44
36 37 38 38 38 37 35 35 37 39 39 37 32 31 33 33 33 33 34 36 38 39 40 40 40 41 41 40 41 42 42 42 42 42 42 42 43 43 44 43 42 43 43 45 46 43 40 35 31 32 34 32 31 31 30 29 29 30 31 31 33 33 29 29 32 28 22 28 36 34 33 38 41 44 48 51 50 50 51 51 51 50 50 49 47
36 37 38 37 37 35 33 34 36 39 39 35 32 33 34 34 34 34 34 36 38 39 40 41 41 41 41 41 41 43 43 42 41 41 41 41 41 40 41 42 42 43 43 44 45 46 46 43 39 39 42 39 36 36 34 29 30 33 33 33 34 34 34 36 37 31 24 30 39 34 27 35 41 41 46 50 47 47 51 53 53 52 51 51 50
35 36 36 36 36 35 34 34 36 40 40 34 32 33 34 33 33 33 32 33 34 35 37 38 38 39 41 42 43 43 44 43 42 40 39 40 40 39 40 40 42 44 44 44 44 45 45 45 44 45 48 46 43 42 38 32 33 36 36 38 38 38 38 38 35 32 30 35 40 32 22 30 37 38 45 48 43 45 50 52 53 53 49 48 51
34 34 35 35 35 36 36 35 36 41 41 34 31 32 32 31 32 31 31 31 32 34 35 36 36 36 37 38 38 39 40 41 41 39 38 39 39 40 40 41 41 42 44 46 47 47 47 46 46 47 50 50 47 46 43 38 35 35 35 36 37 35 32 28 27 30 31 32 37 36 27 24 28 36 41 41 38 42 47 47 51 53 48 45 47
34 34 35 36 35 34 36 36 36 39 40 34 30 31 31 31 31 31 30 31 31 32 33 33 33 33 33 33 34 36 38 40 40 39 38 38 40 40 41 41 41 41 43 45 46 47 48 50 50 49 51 52 51 49 48 44 39 36 32 30 30 31 26 18 17 23 27 28 35 40 32 22 24 33 34 31 33 41 43 42 47 50 46 44 43
35 35 35 36 35 33 34 36 35 36 39 35 30 31 32 30 30 31 30 30 31 31 32 32 31 31 31 31 32 33 35 36 37 36 36 36 38 39 39 40 40 39 41 43 44 44 45 46 48 49 50 52 51 49 47 45 43 39 35 33 32 31 26 19 18 19 21 27 36 39 31 25 27 29 25 20 24 34 39 38 40 43 44 42 40
34 35 34 35 36 34 34 36 34 34 37 37 32 31 32 30 29 31 31 31 31 32 32 33 32 32 32 33 33 34 36 37 38 37 36 36 36 37 37 36 36 38 40 40 40 41 41 41 42 44 46 49 49 48 46 46 45 42 41 41 38 33 28 27 25 18 12 21 35 38 32 26 26 27 24 15 9 18 30 34 34 38 42 41 40
Wind_Direction
227 227 228 230 233 235 235 236 237 238 239 240 240 239 235 233 234 234 223 212 211 210 212 216 219 218 216 219 219 223 230 232 237 238 239 241 239 234 226 222 214 210 202 189 197 206 207 204 203 206 203 202 198 191 187 180 175 183 194 204 206 202 191 184 182 182 183 179 172 163 162 167 155 143 152 145 130 139 154 151 143 141 138 144 153
228 229 230 232 235 236 236 237 238 239 241 241 241 241 239 236 234 235 227 218 217 216 218 219 221 223 221 223 224 227 233 236 241 243 244 243 243 244 236 230 220 212 205 192 191 205 212 213 213 214 210 207 197 185 191 189 181 183 194 203 208 208 201 199 198 202 204 192 184 180 171 161 158 162 167 165 156 154 156 148 134 124 125 130 138
231 231 233 234 236 237 238 238 239 240 241 242 243 243 242 240 238 238 232 222 220 222 224 226 225 227 226 227 228 229 234 238 242 245 246 246 246 247 242 236 227 216 209 202 197 198 203 208 214 216 210 211 208 204 200 192 194 209 215 210 212 217 210 211 211 209 208 196 191 187 176 164 163 160 160 157 157 167 174 181 178 148 151 152 138
234 234 235 237 238 238 240 240 241 241 241 242 243 244 244 242 239 239 238 230 227 227 228 229 229 230 230 229 230 230 233 238 243 245 248 249 249 249 243 237 230 221 215 212 208 203 201 201 203 204 210 219 216 216 205 194 202 214 205 205 215 221 217 220 218 212 207 197 193 190 181 174 175 171 167 163 158 164 168 170 172 156 167 182 181
236 237 238 240 241 240 242 242 242 242 241 241 242 243 244 241 237 237 239 237 235 233 229 230 230 232 232 231 231 230 231 235 240 244 249 251 252 250 246 240 232 225 220 216 215 213 209 208 206 198 203 218 215 217 211 200 202 203 202 212 220 222 219 222 220 213 208 199 194 190 186 184 185 185 181 183 178 175 172 167 166 160 164 171 178
240 241 240 241 242 242 243 245 244 242 240 241 242 243 243 240 236 235 239 241 241 236 230 229 230 231 232 231 230 229 230 233 237 241 246 250 252 250 247 242 235 229 225 221 218 219 216 215 213 206 203 208 210 219 221 211 205 206 219 224 222 225 219 218 219 213 207 202 201 196 195 194 193 198 195 190 182 178 178 169 166 166 167 166 166
243 243 242 242 243 243 244 246 245 242 240 240 243 244 242 241 238 236 239 243 243 237 232 231 232 232 229 229 229 228 228 230 232 236 241 245 248 249 246 243 239 233 230 227 224 221 220 219 219 217 215 210 210 219 221 215 217 218 224 223 219 223 220 216 214 212 209 206 207 203 201 201 201 203 200 198 189 188 187 177 177 171 164 166 167
243 243 243 242 243 244 245 246 244 242 241 240 242 244 242 240 239 239 239 240 239 237 234 234 235 234 230 229 229 228 229 229 230 232 236 241 244 244 243 241 239 236 233 231 228 224 222 222 223 222 223 218 216 219 210 211 222 220 217 220 219 218 218 218 214 213 212 210 209 205 205 207 206 204 204 210 208 210 214 205 206 196 181 180 177
241 242 242 242 242 243 245 243 241 241 241 240 242 244 242 239 238 238 238 237 236 236 235 236 237 235 232 231 230 230 231 230 230 232 235 238 239 240 241 241 239 236 235 233 230 227 224 224 222 221 223 222 219 216 204 200 211 211 209 214 216 216 219 219 217 218 213 209 210 208 210 211 209 211 213 218 219 222 223 216 214 204 196 194 186
241 241 242 241 241 241 242 240 239 238 239 242 244 244 242 239 238 237 235 234 235 237 237 237 236 234 233 232 231 231 233 234 234 234 235 236 238 239 240 240 238 237 235 233 231 229 228 226 222 219 220 221 220 215 208 201 201 205 209 214 216 219 223 220 217 218 214 211 215 213 214 214 213 218 219 219 219 217 216 213 211 205 204 202 196
242 243 242 242 240 240 240 240 239 238 238 241 241 240 239 238 237 235 232 232 236 240 240 238 234 233 233 232 231 232 233 236 236 236 237 239 240 240 239 240 241 240 236 231 231 231 230 228 225 222 220 221 221 218 215 210 204 203 207 215 221 221 221 222 218 217 219 221 222 221 221 221 221 224 224 220 218 214 212 213 214 213 212 211 206
244 245 245 246 245 242 241 240 240 238 237 239 239 241 241 240 238 234 230 230 233 237 239 236 230 228 230 230 230 232 234 235 237 238 240 241 240 239 239 242 243 243 240 235 232 232 230 230 228 225 224 222 222 220 218 217 212 209 210 213 220 222 221 223 221 221 225 226 225 226 227 226 224 225 223 221 220 218 216 215 216 218 217 217 215
286 272 269 263 256 250 246 243 243 243 243 242 241 241 241 240 238 233 230 229 230 233 233 229 223 221 226 232 234 234 234 235 237 240 242 242 241 239 240 241 242 243 244 241 237 235 232 230 230 228 227 225 221 219 218 217 216 216 217 214 214 219 222 223 222 224 226 226 226 227 227 225 222 223 223 224 226 225 223 222 220 220 221 221 219
12 1 350 333 311 287 270 260 254 250 248 245 242 239 236 236 234 231 231 231 233 234 229 220 213 215 220 236 245 243 241 240 240 240 240 241 240 240 240 240 242 243 244 244 241 239 236 232 231 230 229 227 224 221 220 219 219 221 221 217 211 213 221 224 224 226 227 227 227 226 226 224 220 221 224 227 230 230 228 225 223 222 222 222 221
9 1 359 356 351 340 322 298 278 262 252 246 243 240 237 236 235 234 233 230 232 234 229 223 215 211 214 243 255 255 255 248 244 241 238 239 240 240 241 241 243 244 244 245 244 242 239 235 233 231 230 229 227 226 226 226 227 225 223 220 216 213 217 221 222 226 229 228 227 225 224 222 220 220 223 225 227 230 229 224 223 222 220 219 219
1 350 345 348 348 346 343 334 319 296 273 259 253 250 244 241 240 239 235 230 230 232 232 228 220 212 204 218 203 290 268 255 249 245 239 237 238 239 240 243 243 243 243 244 245 245 243 240 237 233 232 231 230 229 230 231 232 230 224 220 219 217 216 218 221 224 227 229 228 225 222 220 219 219 218 220 221 225 226 224 222 221 221 219 217
23 11 359 351 347 343 342 340 340 335 317 293 274 266 259 253 249 245 240 235 235 236 235 230 225 223 218 203 143 235 249 260 278 260 242 234 236 238 239 242 243 243 243 245 245 246 245 245 242 238 235 235 233 232 231 231 231 230 226 222 221 220 218 218 221 223 223 225 227 225 222 220 218 218 218 218 218 220 222 222 222 220 221 220 216
38 30 23 14 3 352 346 342 343 344 343 334 309 288 277 269 263 256 250 246 244 243 241 237 232 229 226 226 234 238 255 273 265 290 258 237 235 236 237 239 241 243 245 247 248 247 246 246 246 243 239 238 237 235 234 233 231 230 228 225 224 222 220 217 219 222 220 220 224 225 222 219 219 221 221 220 215 216 218 218 220 221 220 219 216
39 34 31 28 24 15 5 355 350 348 346 344 338 320 298 285 277 270 265 258 251 247 248 247 241 234 232 233 238 245 262 271 233 277 306 257 239 236 237 238 240 243 245 248 250 249 248 246 245 245 242 240 240 239 237 236 234 233 230 228 227 225 223 220 220 222 218 216 220 225 223 219 220 224 224 223 216 213 215 215 217 219 218 217 216
35 26 23 23 25 24 21 15 6 358 353 349 345 338 322 304 291 282 276 268 258 251 250 250 247 244 242 240 241 247 255 259 259 264 281 290 264 243 239 240 240 243 246 249 250 249 249 247 245 245 244 242 241 241 240 239 237 235 232 230 229 227 226 224 223 220 215 215 218 223 226 222 221 226 228 225 218 212 212 212 213 216 216 215 215
40 29 23 19 17 15 17 18 15 9 2 356 350 344 337 325 313 303 293 281 270 260 254 251 249 250 251 248 247 249 253 257 260 264 263 266 275 257 243 242 241 243 245 247 248 248 248 248 248 247 246 245 243 242 242 240 239 237 234 232 230 228 227 226 224 220 216 216 217 220 226 225 221 227 229 225 219 215 213 212 211 212 213 211 212
36 27 22 21 18 13 9 7 5 3 0 357 352 346 341 335 328 320 313 303 293 280 269 263 258 255 255 254 252 250 252 255 256 258 259 254 253 259 250 239 239 247 248 247 248 248 247 247 248 248 248 246 245 244 243 242 240 238 235 233 231 229 227 226 224 222 219 218 218 219 223 225 223 227 230 226 220 216 214 213 211 210 210 208 208
38 32 26 20 16 13 10 4 355 349 349 351 350 346 340 335 331 326 322 317 311 303 291 279 271 265 260 257 256 253 251 252 252 251 250 248 254 264 253 245 243 249 252 252 251 248 246 246 246 247 247 246 245 245 245 244 242 240 237 233 232 230 228 227 225 224 222 222 223 226 229 230 229 227 229 228 223 220 218 214 213 211 209 208 208
41 38 35 30 25 20 13 5 357 347 343 341 338 337 333 329 327 325 324 321 318 315 308 299 288 277 271 265 262 259 256 256 256 253 249 251 256 261 262 258 252 251 255 256 254 250 247 246 246 247 247 246 245 245 246 246 245 242 239 235 232 231 229 228 227 227 226 227 229 232 235 238 237 232 226 225 224 224 222 217 215 214 211 211 211
38 37 36 34 33 30 25 19 9 357 344 335 328 326 325 323 321 320 321 321 321 319 316 311 303 291 284 278 271 266 263 261 260 257 254 255 255 259 266 263 257 261 262 257 255 255 251 248 248 248 247 246 246 245 244 246 246 244 241 237 233 231 230 230 230 231 230 231 232 235 238 241 241 237 230 228 225 224 225 222 218 217 215 213 213
36 34 32 32 33 32 30 28 23 16 7 356 346 337 329 324 319 317 317 317 317 319 318 315 311 304 296 290 283 277 273 270 266 261 258 255 252 256 264 263 258 260 265 260 253 251 250 250 251 249 247 246 246 244 243 244 246 245 242 239 236 233 231 231 232 234 235 235 236 237 239 241 241 238 234 233 228 222 224 224 222 221 219 217 216
33 30 27 26 26 25 25 24 23 21 17 13 8 1 352 342 332 323 317 315 313 311 313 314 312 310 307 301 296 290 285 282 276 270 264 259 256 255 256 263 266 260 259 261 253 245 245 250 252 249 246 246 245 244 243 243 244 245 243 240 239 237 235 233 233 235 237 238 238 238 239 240 239 237 236 237 231 223 220 222 222 222 221 219 217
27 24 22 19 17 16 16 15 14 13 11 10 8 5 2 358 352 344 334 327 318 311 309 309 309 309 308 307 304 300 297 293 288 282 275 269 263 259 254 250 260 268 263 260 256 251 249 247 249 250 248 248 247 245 244 243 244 244 243 241 240 239 238 236 235 235 238 240 240 239 237 237 237 236 236 236 232 225 219 218 220 220 220 219 217
19 17 15 13 11 8 7 6 5 4 2 1 359 358 357 356 354 352 348 340 328 320 315 310 308 307 305 304 304 303 303 301 296 292 288 281 273 267 259 252 252 258 269 268 260 251 249 244 244 249 251 250 249 247 244 243 243 243 242 241 240 240 239 238 237 236 237 240 240 239 237 236 236 235 235 234 232 228 221 216 218 218 218 217 214
12 11 8 6 5 3 1 360 358 357 355 354 352 350 349 347 347 346 345 342 335 331 326 318 313 309 304 302 301 301 301 301 300 298 296 291 284 277 269 262 255 250 256 272 266 253 249 246 245 248 252 252 251 248 245 244 244 243 242 241 240 241 241 239 238 237 237 238 240 240 238 236 235 235 234 233 232 227 221 217 217 217 217 214 209
4 3 1 359 358 356 355 353 352 351 350 349 348 346 344 342 340 338 338 336 333 331 329 326 321 314 308 304 301 300 299 298 299 298 297 296 292 286 279 271 262 256 254 260 271 260 248 249 253 254 255 256 254 250 246 244 244 243 241 241 240 241 241 239 238 238 237 237 239 240 239 236 235 234 233 232 231 226 220 216 216 219 220 216 210
359 359 357 354 352 349 348 346 345 344 344 343 343 341 339 337 335 334 333 331 328 325 324 323 322 319 313 309 305 302 300 298 296 295 295 295 294 292 286 279 271 264 259 254 262 267 258 257 262 261 260 259 255 251 246 245 244 242 241 242 241 240 239 239 238 237 237 236 237 239 240 238 235 234 233 230 230 227 222 217 214 216 219 215 211
354 353 351 349 347 343 341 339 338 337 336 336 336 335 333 331 330 328 327 326 324 321 320 317 317 316 313 311 309 306 304 300 297 296 294 293 293 291 288 283 276 270 264 256 258 270 268 263 262 262 261 257 254 250 246 243 242 241 241 241 241 239 238 238 237 236 236 235 235 237 239 239 237 235 234 231 230 228 225 221 217 217 216 211 209
348 346 344 342 340 337 335 332 330 329 327 327 327 327 325 324 323 322 322 321 318 316 315 313 312 312 309 306 305 306 306 302 298 297 295 294 293 290 286 283 277 273 267 259 259 267 271 267 263 261 259 254 252 251 246 244 243 242 241 240 239 239 239 238 237 236 235 233 233 234 236 238 238 237 236 233 231 229 227 224 222 219 216 214 212
340 339 337 335 333 332 329 327 325 322 320 319 318 317 316 315 315 315 315 315 314 311 309 308 307 307 305 302 299 300 301 300 298 296 294 292 291 288 285 282 277 274 270 262 259 262 270 272 265 260 258 254 252 252 249 247 246 243 241 240 239 239 238 236 235 235 234 233 232 233 234 236 238 238 237 235 233 230 228 226 225 221 217 216 216
335 334 332 330 329 327 325 324 322 319 317 316 314 311 309 309 308 308 307 308 308 307 306 305 304 302 300 298 297 296 294 292 292 293 292 290 287 285 284 281 278 275 271 265 260 259 265 271 267 260 258 257 256 255 251 246 242 239 238 238 237 236 236 234 233 234 234 233 232 232 233 234 236 237 236 235 234 231 229 228 227 223 219 217 215
331 330 329 328 327 324 322 320 318 316 315 314 311 309 308 307 306 305 305 304 304 303 303 302 301 300 298 295 294 293 290 285 284 286 287 288 286 283 280 279 278 276 273 269 263 260 259 263 267 265 260 256 256 255 251 243 238 236 236 236 234 233 233 232 232 232 232 232 231 231 232 233 234 236 235 234 233 231 229 230 229 225 221 218 214
329 328 327 326 325 322 320 317 315 313 312 310 307 306 305 305 305 304 303 303 302 301 300 299 298 298 296 294 292 290 286 282 280 281 281 282 283 282 279 278 276 274 273 270 266 262 259 260 264 265 259 254 252 252 250 244 236 232 232 233 234 232 231 230 231 232 232 231 230 229 229 230 231 233 233 231 231 231 230 230 230 228 224 220 216
326 326 325 323 321 320 317 315 313 311 310 307 304 303 303 303 303 302 302 301 299 298 296 295 294 293 293 292 291 289 286 282 280 279 278 277 278 278 279 279 278 274 271 269 267 263 260 261 262 261 259 255 249 248 250 246 238 233 230 227 228 228 228 228 230 231 231 231 231 228 227 228 229 230 230 228 230 233 231 230 230 230 227 222 218
324 322 321 320 318 317 315 313 311 310 308 306 304 304 304 304 302 300 299 298 297 295 294 293 292 291 289 289 288 288 286 283 281 280 278 275 273 273 274 275 274 272 269 267 266 262 259 260 261 260 258 254 246 243 244 238 230 231 229 223 225 226 224 227 229 229 229 230 229 227 226 226 227 228 228 228 231 233 231 229 229 230 228 224 222
321 319 318 317 316 315 314 312 310 309 307 305 304 305 306 305 303 301 298 296 294 292 291 290 289 288 287 286 286 285 285 284 283 281 278 275 272 269 269 268 266 265 265 264 262 260 258 257 259 260 256 250 243 235 231 226 224 229 228 222 226 229 225 227 231 229 228 228 227 226 224 223 224 226 227 228 230 230 228 227 227 226 226 226 226
317 317 316 315 314 313 312 311 309 308 305 303 304 306 306 304 303 301 299 296 293 291 289 288 286 285 285 284 283 283 283 283 282 281 279 278 274 269 268 266 262 259 258 258 257 256 255 254 255 256 252 250 245 234 229 230 230 230 226 219 223 227 221 226 235 233 229 226 224 225 225 223 222 224 226 228 229 228 225 225 224 224 224 226 226
314 314 313 313 311 310 310 309 307 306 304 303 306 308 307 305 304 302 299 296 294 291 288 286 285 285 284 283 283 283 282 281 280 280 279 279 277 274 271 268 264 259 255 253 252 251 250 251 253 253 249 249 250 242 234 235 231 226 226 222 220 218 212 216 232 234 228 223 219 222 227 224 221 223 226 227 228 227 226 226 224 224 224 224 225
313 311 310 309 308 307 308 307 305 304 302 303 308 310 308 307 306 303 300 297 294 291 288 286 284 284 284 284 283 281 280 279 279 279 278 278 277 276 274 271 267 262 258 254 252 249 247 246 249 251 248 249 252 248 238 234 229 224 226 225 221 219 216 218 225 230 228 220 213 217 229 226 220 223 227 228 227 226 227 228 226 225 225 224 225
311 309 307 306 304 305 306 306 304 302 301 304 309 310 307 306 306 304 300 296 293 290 288 286 284 283 283 284 284 282 280 278 277 277 277 277 277 277 276 274 270 265 261 258 255 252 249 246 245 249 249 248 251 251 245 237 228 222 222 223 224 222 222 225 228 231 229 215 206 211 227 228 220 221 227 229 228 226 226 228 227 226 226 225 225
308 306 305 304 304 305 306 305 304 302 301 305 309 308 306 305 304 302 299 294 291 289 287 286 285 284 283 283 282 281 280 278 277 276 276 277 278 276 275 273 271 268 265 261 257 254 251 248 245 248 250 249 249 251 251 243 231 225 222 222 223 223 225 232 235 234 231 223 213 209 223 228 219 218 227 229 227 226 226 227 227 225 225 225 224
306 304 304 303 304 306 306 306 304 302 301 306 309 307 306 306 305 302 298 295 292 290 288 287 286 285 284 283 281 279 279 278 277 276 277 278 278 277 275 272 270 268 266 263 259 256 253 250 247 248 250 250 249 250 251 247 240 236 233 231 230 229 229 234 237 233 231 228 217 207 221 230 215 212 226 229 224 226 227 226 226 224 223 223 224
305 304 303 303 304 305 305 305 303 301 302 306 308 306 305 306 305 303 299 295 292 289 287 287 287 286 285 283 282 282 281 280 279 278 278 279 279 278 277 274 271 268 265 264 262 260 257 255 253 251 252 253 251 250 250 247 245 243 239 236 233 230 227 230 234 230 227 224 215 210 223 233 211 210 225 227 221 224 227 226 225 224 221 221 222
305 304 303 303 303 303 303 303 302 301 303 306 307 305 304 304 303 300 297 294 291 289 289 288 288 287 285 284 284 285 284 283 283 282 280 278 277 277 276 275 273 269 265 263 263 261 260 259 257 256 256 256 255 252 251 248 246 243 236 230 226 223 222 225 232 230 225 221 215 212 220 231 216 212 221 221 219 223 226 226 226 224 220 220 219
303 302 302 302 301 301 301 301 302 301 302 304 305 303 302 302 300 298 295 292 290 290 290 290 290 289 288 288 288 288 287 286 286 285 282 278 275 273 272 273 273 271 267 264 262 261 260 259 258 255 255 255 255 253 251 249 246 241 233 229 226 222 220 223 231 231 225 224 220 213 216 229 223 211 206 206 215 222 223 225 225 222 220 219 218
300 300 300 300 300 301 301 301 302 301 301 302 303 302 300 300 298 296 294 291 289 290 290 290 290 289 289 290 289 288 287 287 287 287 284 281 277 274 272 272 272 270 269 267 263 260 258 256 255 253 252 252 252 251 249 247 245 240 235 233 230 224 221 226 230 228 225 230 224 211 208 223 221 204 194 188 201 223 222 222 223 220 217 215 214